Tracking 19193 objects as of 23-Jun-2018
HD Live streaming from Space Station
objects crossing your sky now

FENGYUN 1C DEB

Track FENGYUN 1C DEB now!
10-day predictions


NORAD ID: 31159
Int'l Code: 1999-025BHM
Perigee: 457.9 km
Apogee: 925.9 km
Inclination: 97.7 °
Period: 98.5 minutes
Semi major axis: 7062 km
RCS: 0.0102 m2 (small)
Launch date: May 10, 1999
Source: People's Republic of China (PRC)
Launch site: Taiyaun Space Center, China (TSC)

Note: This is SATELLITE DEBRIS
aabbcc
Your satellite tracking list
Your tracking list is empty




NASA's NSSDC Master Catalog

Two Line Element Set (TLE):
1 31159U 99025BHM 18172.33901704 +.00000501 +00000-0 +50899-4 0  9991
2 31159 097.6590 218.1898 0331310 263.8405 092.4964 14.62597435592278
Source of the keplerian elements: AFSPC